GW0734 Weather Reports


Display with metric or nautical units.
time (UTC)temp
F
wind
direction
speed
MPH
gust
MPH
rain 1hr
in
rain 24hr
in
rain mn
in
humidity
%
barometer
mb
20260509053042 52 172 2.0 7.0 0.00 0.03 0.00 90 1006.9
20260509051545 53 190 4.0 7.0 0.00 0.03 0.00 90 1007.2
20260509050043 53 188 3.0 7.0 0.00 0.03 0.00 90 1007.2
20260509044547 53 155 3.0 6.0 0.00 0.03 0.00 90 1007.2
20260509043044 53 175 3.0 5.0 0.00 0.03 0.00 90 1007.3
20260509041552 54 187 3.0 6.0 0.00 0.03 0.00 89 1007.5
20260509040043 54 180 2.0 5.0 0.00 0.03 0.00 89 1007.5
20260509034543 54 186 3.0 6.0 0.00 0.03 0.03 88 1007.6
20260509033046 55 153 2.0 5.0 0.00 0.03 0.03 88 1007.8
20260509031549 55 182 3.0 7.0 0.00 0.03 0.03 88 1007.8
20260509030053 55 178 3.0 7.0 0.00 0.03 0.03 87 1007.9
20260509024550 56 194 3.0 6.0 0.00 0.05 0.03 86 1008.0
20260509023049 56 200 4.0 7.0 0.00 0.05 0.03 86 1008.0
20260509021550 56 189 4.0 7.0 0.00 0.05 0.03 87 1008.0
20260509020051 56 195 4.0 9.0 0.00 0.05 0.03 86 1008.0
20260509014551 56 190 5.0 6.0 0.00 0.18 0.03 86 1007.9
20260509013055 56 200 4.0 6.0 0.00 0.18 0.03 86 1007.8
20260509011548 56 201 3.0 6.0 0.00 0.18 0.03 85 1007.6
20260509010047 57 206 5.0 8.0 0.00 0.18 0.03 85 1007.5
20260509004550 57 196 6.0 9.0 0.00 0.18 0.03 84 1007.5
20260509003047 57 203 3.0 7.0 0.00 0.18 0.03 83 1007.3
20260509001550 58 198 3.0 7.0 0.00 0.18 0.03 83 1007.3
20260509000052 58 208 4.0 9.0 0.01 0.18 0.03 82 1007.4
20260508234551 58 214 4.0 9.0 0.03 0.18 0.03 82 1007.5
20260508233052 57 230 6.0 10.0 0.03 0.18 0.03 83 1007.5
20260508231543 57 264 2.0 10.0 0.03 0.18 0.03 85 1007.5
20260508230050 57 225 7.0 11.0 0.02 0.17 0.02 83 1007.6
20260508224550 59 244 10.0 16.0 0.00 0.15 0.00 77 1007.6
20260508223047 60 217 5.0 10.0 0.00 0.15 0.00 76 1007.6
20260508221543 60 209 7.0 10.0 0.00 0.15 0.00 74 1007.5
20260508220043 60 213 3.0 8.0 0.00 0.15 0.00 75 1007.6
20260508214550 59 188 5.0 10.0 0.00 0.15 0.00 73 1007.6
20260508213054 59 175 6.0 10.0 0.00 0.15 0.00 74 1007.7
20260508211549 59 192 8.0 12.0 0.00 0.15 0.00 72 1007.8
20260508210055 59 204 6.0 11.0 0.00 0.15 0.00 73 1007.8
20260508204556 60 217 6.0 12.0 0.00 0.15 0.00 73 1007.9
20260508203058 59 206 5.0 11.0 0.00 0.15 0.00 74 1008.0
20260508201600 60 191 1.0 4.0 0.00 0.15 0.00 75 1008.3
20260508200045 59 172 1.0 9.0 0.00 0.15 0.00 76 1008.7
20260508194552 59 146 1.0 9.0 0.00 0.15 0.00 80 1008.9
20260508193056 57 194 3.0 7.0 0.00 0.15 0.00 79 1009.1
20260508191550 57 0 2.0 11.0 0.00 0.15 0.00 81 1009.4
20260508190050 56 189 6.0 11.0 0.00 0.15 0.00 81 1009.7
20260508184549 56 188 7.0 11.0 0.00 0.15 0.00 81 1010.0
20260508183044 56 202 6.0 10.0 0.00 0.15 0.00 80 1010.2
20260508181555 56 185 3.0 11.0 0.00 0.15 0.00 79 1010.3
20260508180044 56 207 7.0 10.0 0.00 0.15 0.00 79 1010.3
20260508174604 56 172 5.0 12.0 0.00 0.15 0.00 81 1010.4
20260508173051 56 221 5.0 12.0 0.00 0.15 0.00 80 1010.7
20260508171545 55 200 6.0 11.0 0.00 0.15 0.00 81 1011.0
20260508170046 55 222 4.0 11.0 0.00 0.15 0.00 82 1011.1
20260508164546 55 211 6.0 11.0 0.00 0.15 0.00 83 1011.2
20260508163051 55 222 8.0 12.0 0.00 0.15 0.00 84 1011.5
20260508161548 55 228 6.0 11.0 0.00 0.15 0.00 85 1011.5
20260508160045 54 236 8.0 12.0 0.00 0.15 0.00 85 1011.7
20260508154544 54 236 7.0 11.0 0.00 0.15 0.00 86 1011.6
20260508153042 54 227 7.0 12.0 0.00 0.15 0.00 85 1011.4
20260508151546 54 227 7.0 11.0 0.00 0.15 0.00 87 1011.4
20260508150048 53 215 8.0 12.0 0.00 0.15 0.00 88 1011.5
20260508144546 53 207 8.0 11.0 0.00 0.15 0.00 89 1011.6
20260508143044 51 201 6.0 11.0 0.00 0.15 0.00 89 1011.7
20260508141611 50 208 3.0 6.0 0.00 0.15 0.00 89 1011.9
20260508140043 49 221 4.0 6.0 0.00 0.15 0.00 89 1012.2
20260508134558 49 220 3.0 5.0 0.00 0.15 0.00 89 1012.2
20260508133044 49 224 2.0 5.0 0.00 0.15 0.00 89 1012.1
20260508131553 49 0 1.0 4.0 0.00 0.15 0.00 90 1012.0
20260508130047 48 232 1.0 3.0 0.00 0.15 0.00 90 1012.0
20260508124556 48 205 1.0 4.0 0.00 0.15 0.00 90 1011.8
20260508123052 47 189 1.0 5.0 0.00 0.15 0.00 90 1011.8
20260508121551 47 191 3.0 5.0 0.00 0.15 0.00 90 1012.0
20260508120045 47 0 1.0 3.0 0.00 0.15 0.00 90 1011.7
20260508114543 46 0 0.0 2.0 0.00 0.15 0.00 90 1011.7
20260508113052 46 0 0.0 4.0 0.00 0.15 0.00 90 1011.6
20260508111552 45 201 2.0 5.0 0.00 0.15 0.00 90 1011.5
20260508110053 45 206 3.0 6.0 0.00 0.15 0.00 90 1011.4
20260508104551 45 207 2.0 4.0 0.00 0.15 0.00 90 1011.4
20260508103046 44 209 1.0 4.0 0.00 0.15 0.00 90 1011.4
20260508101542 44 232 2.0 4.0 0.00 0.15 0.00 90 1011.4
20260508100045 45 236 1.0 5.0 0.00 0.15 0.00 89 1011.3
20260508094542 45 222 2.0 5.0 0.00 0.15 0.00 90 1011.3
20260508093047 45 218 3.0 6.0 0.00 0.15 0.00 90 1011.3
20260508091550 45 213 3.0 6.0 0.00 0.15 0.00 90 1011.4
20260508084547 44 205 3.0 7.0 0.00 0.15 0.00 90 1011.4
20260508083059 44 202 4.0 7.0 0.00 0.15 0.00 91 1011.4
20260508081556 44 200 3.0 5.0 0.00 0.15 0.00 91 1011.5
20260508080044 44 210 3.0 5.0 0.00 0.15 0.00 91 1011.5
20260508074551 44 203 2.0 4.0 0.00 0.15 0.00 90 1011.5
20260508073047 44 213 0.0 2.0 0.00 0.15 0.00 90 1011.4
20260508071548 44 0 0.0 1.0 0.00 0.15 0.00 90 1011.5
20260508070047 45 0 0.0 3.0 0.00 0.15 0.00 90 1011.6
20260508064544 45 205 1.0 5.0 0.00 0.15 0.00 90 1011.5
20260508063050 45 190 0.0 4.0 0.00 0.15 0.00 90 1011.5
20260508061549 45 192 3.0 7.0 0.00 0.15 0.00 90 1011.5
20260508060047 45 185 3.0 9.0 0.00 0.15 0.00 90 1011.7
20260508054545 45 171 3.0 6.0 0.00 0.15 0.00 90 1011.8